Weather History for Sidney-Richland, MT

Change the Weather History Date:

Friday, November 30, 2012

  Actual Average Record
Temperature  
Mean Temperature 27 °F -  
Max Temperature 37 °F 33 °F 57 °F (1969)
Min Temperature 17 °F 14 °F -15 °F (1964)
Degree Days  
Heating Degree Days 38    
Moisture  
Dew Point 24 °F    
Average Humidity 87    
Maximum Humidity 100    
Minimum Humidity 75    
Precipitation  
Precipitation 0.00 in - - ()
Sea Level Pressure  
Sea Level Pressure 29.75 in    
Wind  
Wind Speed 2 mph (SSE)    
Max Wind Speed 7 mph    
Max Gust Speed -    
Visibility 10 miles    
Events      
Averages and records for this station are not official NWS values.
T = Trace of Precipitation, MM = Missing Value Source: NWS Daily Summary

Daily Weather History Graph

Daily Weather History Graph

Search for Another Location

Airport:

Trip Planner

Search our weather history database for the weather conditions in past years. The results will help you decide how hot, cold, wet, or windy it might be!

Date:

Astronomy

Nov. 30, 2012 Rise Set
Actual Time 7:23 AM MST 4:07 PM MST
Civil Twilight 6:48 AM MST 4:42 PM MST
Nautical Twilight 6:09 AM MST 5:21 PM MST
Astronomical Twilight 5:32 AM MST 5:58 PM MST
Moon 6:05 PM MST (11/30) 8:57 AM MST (11/30)
Length of Visible Light 9h 53m
Length of Day
8h 43m
Waning Gibbous, 96% of the Moon is Illuminated
Nov 30
Waning Gibbous
Dec 6
Last Quarter
Dec 13
New
Dec 19
First Quarter
Dec 28
Full

Hourly Weather History & Observations

Time (MST) Temp. Windchill Dew Point Humidity Pressure Visibility Wind Dir Wind Speed Gust Speed Precip Events Conditions
12:15 AM 17.6 °F - 15.8 °F 93% 29.96 in 9.0 mi Calm Calm - N/A   Clear
12:35 AM 17.6 °F 12.3 °F 17.6 °F 100% 29.95 in 9.0 mi NE 3.5 mph - N/A   Clear
12:55 AM 17.6 °F 12.3 °F 15.8 °F 93% 29.94 in 9.0 mi NE 3.5 mph - N/A   Clear
1:15 AM 19.4 °F 11.5 °F 17.6 °F 93% 29.93 in 9.0 mi East 5.8 mph - N/A   Clear
1:35 AM 19.4 °F 12.8 °F 17.6 °F 93% 29.93 in 8.0 mi East 4.6 mph - N/A   Clear
1:55 AM 19.4 °F 12.8 °F 17.6 °F 93% 29.93 in 9.0 mi East 4.6 mph - N/A   Clear
2:15 AM 21.2 °F 14.9 °F 17.6 °F 86% 29.92 in 10.0 mi East 4.6 mph - N/A   Clear
2:35 AM 21.2 °F 16.4 °F 17.6 °F 86% 29.92 in 10.0 mi East 3.5 mph - N/A   Clear
2:55 AM 23.0 °F - 19.4 °F 86% 29.91 in 10.0 mi Calm Calm - N/A   Clear
3:15 AM 21.2 °F - 15.8 °F 80% 29.91 in 9.0 mi Calm Calm - N/A   Clear
3:35 AM 21.2 °F - 15.8 °F 80% 29.89 in 10.0 mi Calm Calm - N/A   Clear
3:55 AM 19.4 °F - 17.6 °F 93% 29.89 in 10.0 mi Calm Calm - N/A   Clear
4:15 AM 21.2 °F 14.9 °F 17.6 °F 86% 29.88 in 10.0 mi ESE 4.6 mph - N/A   Clear
4:35 AM 21.2 °F 16.4 °F 17.6 °F 86% 29.88 in 10.0 mi ESE 3.5 mph - N/A   Clear
4:55 AM 23.0 °F 17.0 °F 19.4 °F 86% 29.88 in 10.0 mi ENE 4.6 mph - N/A   Clear
5:15 AM 21.2 °F 12.6 °F 17.6 °F 86% 29.87 in 10.0 mi East 6.9 mph - N/A   Clear
5:35 AM 21.2 °F 14.9 °F 17.6 °F 86% 29.86 in 10.0 mi ESE 4.6 mph - N/A   Clear
5:55 AM 21.2 °F 16.4 °F 17.6 °F 86% 29.84 in 10.0 mi East 3.5 mph - N/A   Scattered Clouds
6:15 AM 23.0 °F - 19.4 °F 86% 29.83 in 10.0 mi Calm Calm - N/A   Partly Cloudy
6:35 AM 21.2 °F 16.4 °F 19.4 °F 93% 29.82 in 10.0 mi SE 3.5 mph - N/A   Clear
6:55 AM 21.2 °F 16.4 °F 19.4 °F 93% 29.82 in 10.0 mi South 3.5 mph - N/A   Clear
7:15 AM 21.2 °F - 17.6 °F 86% 29.81 in 10.0 mi Calm Calm - N/A   Clear
7:35 AM 19.4 °F - 17.6 °F 93% 29.81 in 9.0 mi Calm Calm - N/A   Clear
7:55 AM 19.4 °F - 17.6 °F 93% 29.80 in 10.0 mi Calm Calm - N/A   Clear
8:15 AM 19.4 °F - 17.6 °F 93% 29.81 in 10.0 mi Calm Calm - N/A   Clear
8:35 AM 23.0 °F - 21.2 °F 93% 29.80 in 10.0 mi Calm Calm - N/A   Clear
8:55 AM 21.2 °F 16.4 °F 19.4 °F 93% 29.81 in 9.0 mi South 3.5 mph - N/A   Clear
9:15 AM 23.0 °F - 21.2 °F 93% 29.80 in 9.0 mi Calm Calm - N/A   Clear
9:35 AM 24.8 °F 20.5 °F 21.2 °F 86% 29.79 in 10.0 mi SSE 3.5 mph - N/A   Clear
10:15 AM 26.6 °F 22.6 °F 24.8 °F 93% 29.78 in 10.0 mi SSE 3.5 mph - N/A   Clear
10:35 AM 28.4 °F 24.6 °F 24.8 °F 86% 29.78 in 10.0 mi South 3.5 mph - N/A   Clear
10:55 AM 30.2 °F 24.3 °F 26.6 °F 86% 29.77 in 10.0 mi SSW 5.8 mph - N/A   Clear
11:15 AM 30.2 °F 24.3 °F 26.6 °F 86% 29.75 in 10.0 mi South 5.8 mph - N/A   Clear
11:35 AM 30.2 °F 24.3 °F 26.6 °F 86% 29.75 in 10.0 mi South 5.8 mph - N/A   Clear
11:55 AM 30.2 °F 26.7 °F 26.6 °F 86% 29.72 in 10.0 mi South 3.5 mph - N/A   Clear
12:15 PM 32.0 °F 28.7 °F 28.4 °F 87% 29.71 in 10.0 mi South 3.5 mph - N/A   Clear
12:35 PM 33.8 °F 30.8 °F 28.4 °F 81% 29.71 in 10.0 mi SSW 3.5 mph - N/A   Clear
12:55 PM 35.6 °F 32.8 °F 28.4 °F 75% 29.69 in 10.0 mi SSW 3.5 mph - N/A   Clear
1:15 PM 37.4 °F 32.1 °F 30.2 °F 75% 29.69 in 10.0 mi SSE 6.9 mph - N/A   Clear
1:35 PM 35.6 °F 32.8 °F 30.2 °F 81% 29.68 in 10.0 mi South 3.5 mph - N/A   Clear
1:55 PM 35.6 °F - 30.2 °F 81% 29.66 in 10.0 mi Calm Calm - N/A   Clear
2:15 PM 35.6 °F - 30.2 °F 81% 29.65 in 10.0 mi Calm Calm - N/A   Clear
3:15 PM 37.4 °F - 30.2 °F 75% 29.63 in 10.0 mi Calm Calm - N/A   Clear
3:35 PM 33.8 °F - 28.4 °F 81% 29.64 in 10.0 mi Calm Calm - N/A   Partly Cloudy
3:55 PM 33.8 °F - 30.2 °F 87% 29.65 in 10.0 mi Calm Calm - N/A   Mostly Cloudy
4:15 PM 33.8 °F - 28.4 °F 81% 29.65 in 10.0 mi Calm Calm - N/A   Mostly Cloudy
4:35 PM 33.8 °F 30.8 °F 30.2 °F 87% 29.64 in 10.0 mi SSE 3.5 mph - N/A   Mostly Cloudy
5:15 PM 33.8 °F - 28.4 °F 81% 29.64 in 10.0 mi Calm Calm - N/A   Overcast
5:35 PM 35.6 °F 31.7 °F 32.0 °F 87% 29.64 in 10.0 mi SSW 4.6 mph - N/A   Overcast
5:55 PM 35.6 °F - 30.2 °F 81% 29.64 in 10.0 mi Calm Calm - N/A   Mostly Cloudy
6:15 PM 37.4 °F - 30.2 °F 75% 29.64 in 10.0 mi Calm Calm - N/A   Mostly Cloudy
6:35 PM 33.8 °F - 30.2 °F 87% 29.64 in 10.0 mi Calm Calm - N/A   Overcast
6:55 PM 33.8 °F - 28.4 °F 81% 29.63 in 10.0 mi Calm Calm - N/A   Overcast
7:15 PM 33.8 °F 30.8 °F 30.2 °F 87% 29.64 in 10.0 mi SW 3.5 mph - N/A   Mostly Cloudy
7:35 PM 30.2 °F - 28.4 °F 93% 29.64 in 10.0 mi Calm Calm - N/A   Scattered Clouds
8:15 PM 32.0 °F 27.5 °F 30.2 °F 93% 29.64 in 10.0 mi SW 4.6 mph - N/A   Mostly Cloudy
8:35 PM 33.8 °F - 30.2 °F 87% 29.64 in 10.0 mi Calm Calm - N/A   Overcast
8:55 PM 33.8 °F - 30.2 °F 87% 29.63 in 10.0 mi Calm Calm - N/A   Overcast
9:16 PM 33.8 °F - 30.2 °F 87% 29.63 in 10.0 mi Calm Calm - N/A   Overcast
9:35 PM 33.8 °F 30.8 °F 28.4 °F 81% 29.63 in 10.0 mi SSW 3.5 mph - N/A   Mostly Cloudy
9:55 PM 30.2 °F 26.7 °F 28.4 °F 93% 29.63 in 10.0 mi SSW 3.5 mph - N/A   Overcast
10:15 PM 30.2 °F - 28.4 °F 93% 29.63 in 10.0 mi Calm Calm - N/A   Scattered Clouds
10:35 PM 33.8 °F 27.7 °F 30.2 °F 87% 29.64 in 10.0 mi SW 6.9 mph - N/A   Clear
10:55 PM 32.0 °F 28.7 °F 26.6 °F 80% 29.64 in 10.0 mi South 3.5 mph - N/A   Clear
11:15 PM 30.2 °F - 26.6 °F 86% 29.64 in 10.0 mi Calm Calm - N/A   Clear
11:35 PM 28.4 °F 24.6 °F 26.6 °F 93% 29.65 in 10.0 mi South 3.5 mph - N/A   Clear
11:55 PM 26.6 °F 19.1 °F 24.8 °F 93% 29.66 in 10.0 mi South 6.9 mph - N/A   Clear